Time,TemperatureF,DewpointF,PressureIn,WindDirection,WindDirectionDegrees,WindSpeedMPH,WindSpeedGustMPH,Humidity,HourlyPrecipIn,Conditions,Clouds,dailyrainin,SolarRadiationWatts/m^2,SoftwareType,DateUTC
2013-04-29 00:01:00,71.1,65.7,30.01,SE,141,0.0,7.0,83,0.00,,,0.00,0.0,meteohub,2013-04-29 04:01:00,
2013-04-29 00:06:00,71.1,65.7,30.01,SSW,209,1.0,7.0,83,0.00,,,0.00,0.0,meteohub,2013-04-29 04:06:00,
2013-04-29 00:11:00,71.1,66.0,30.01,South,174,1.0,7.0,84,0.00,,,0.00,0.0,meteohub,2013-04-29 04:11:00,
2013-04-29 00:16:00,71.2,66.2,30.01,SE,146,0.0,9.0,84,0.00,,,0.00,0.0,meteohub,2013-04-29 04:16:00,
2013-04-29 00:21:00,71.2,66.2,30.01,SSE,166,0.0,9.0,84,0.00,,,0.00,0.0,meteohub,2013-04-29 04:21:00,
2013-04-29 00:26:00,71.2,66.2,30.00,ESE,109,5.0,8.0,84,0.00,,,0.00,0.0,meteohub,2013-04-29 04:26:00,
2013-04-29 00:31:00,71.1,66.0,30.00,South,171,0.0,7.0,84,0.00,,,0.00,0.0,meteohub,2013-04-29 04:31:00,
2013-04-29 00:36:00,71.1,66.0,30.01,SW,236,0.0,7.0,84,0.00,,,0.00,0.0,meteohub,2013-04-29 04:36:00,
2013-04-29 00:41:00,71.1,66.0,30.01,SSE,161,0.0,7.0,84,0.00,,,0.00,0.0,meteohub,2013-04-29 04:41:00,
2013-04-29 00:46:00,70.9,65.8,30.01,SW,235,2.0,5.0,84,0.00,,,0.00,0.0,meteohub,2013-04-29 04:46:00,
2013-04-29 00:51:00,70.9,66.2,30.01,SSE,163,0.0,6.0,85,0.00,,,0.00,0.0,meteohub,2013-04-29 04:51:00,
2013-04-29 00:56:00,70.9,66.2,30.01,SSE,155,0.0,6.0,85,0.00,,,0.00,0.0,meteohub,2013-04-29 04:56:00,
2013-04-29 01:01:00,70.7,66.0,30.01,SSW,202,1.0,6.0,85,0.00,,,0.00,0.0,meteohub,2013-04-29 05:01:00,
2013-04-29 01:06:00,70.5,65.8,30.00,SSE,165,1.0,3.0,85,0.00,,,0.00,0.0,meteohub,2013-04-29 05:06:00,
2013-04-29 01:11:00,70.5,65.8,30.00,SE,146,1.0,4.0,85,0.00,,,0.00,0.0,meteohub,2013-04-29 05:11:00,
2013-04-29 01:16:00,70.5,65.8,30.00,SE,142,0.0,6.0,85,0.00,,,0.00,0.0,meteohub,2013-04-29 05:16:00,
2013-04-29 01:21:00,70.5,66.2,30.00,South,191,0.0,6.0,86,0.00,,,0.00,0.0,meteohub,2013-04-29 05:21:00,
2013-04-29 01:26:00,70.5,66.2,30.00,South,191,0.0,5.0,86,0.00,,,0.00,0.0,meteohub,2013-04-29 05:26:00,
2013-04-29 01:31:00,70.5,66.2,30.00,South,188,1.0,5.0,86,0.00,,,0.00,0.0,meteohub,2013-04-29 05:31:00,
2013-04-29 01:36:00,70.5,66.2,30.00,SSE,167,0.0,3.0,86,0.00,,,0.00,0.0,meteohub,2013-04-29 05:36:00,
2013-04-29 01:41:00,70.3,66.2,30.00,SSE,167,0.0,3.0,87,0.00,,,0.00,0.0,meteohub,2013-04-29 05:41:00,
2013-04-29 01:46:00,70.3,66.2,30.00,SSE,167,0.0,3.0,87,0.00,,,0.00,0.0,meteohub,2013-04-29 05:46:00,
2013-04-29 01:51:00,70.2,66.0,30.00,SSE,167,0.0,3.0,87,0.00,,,0.00,0.0,meteohub,2013-04-29 05:51:00,
2013-04-29 01:57:00,70.2,66.0,30.00,SSE,167,0.0,3.0,87,0.00,,,0.00,0.0,meteohub,2013-04-29 05:57:00,
2013-04-29 02:02:00,70.2,66.0,30.00,SSE,167,0.0,2.0,87,0.00,,,0.00,0.0,meteohub,2013-04-29 06:02:00,
2013-04-29 02:07:00,70.2,66.0,30.00,SSE,167,0.0,2.0,87,0.00,,,0.00,0.0,meteohub,2013-04-29 06:07:00,
2013-04-29 02:12:00,70.2,66.0,29.99,South,175,1.0,3.0,87,0.00,,,0.00,0.0,meteohub,2013-04-29 06:12:00,
2013-04-29 02:17:00,70.3,66.2,29.99,South,175,0.0,4.0,87,0.00,,,0.00,0.0,meteohub,2013-04-29 06:17:00,
2013-04-29 02:22:00,70.3,66.2,29.99,SSE,168,0.0,4.0,87,0.00,,,0.00,0.0,meteohub,2013-04-29 06:22:00,
2013-04-29 02:27:00,70.3,66.2,29.99,SSW,201,2.0,4.0,87,0.00,,,0.00,0.0,meteohub,2013-04-29 06:27:00,
2013-04-29 02:32:00,70.3,66.2,29.99,South,191,0.0,5.0,87,0.00,,,0.00,0.0,meteohub,2013-04-29 06:32:00,
2013-04-29 02:37:00,70.3,66.0,29.99,SSE,168,1.0,5.0,86,0.00,,,0.00,0.0,meteohub,2013-04-29 06:37:00,
2013-04-29 02:42:00,70.3,66.0,29.99,ESE,103,0.0,5.0,86,0.00,,,0.00,0.0,meteohub,2013-04-29 06:42:00,
2013-04-29 02:47:00,70.3,66.0,29.99,SSE,155,0.0,4.0,86,0.00,,,0.00,0.0,meteohub,2013-04-29 06:47:00,
2013-04-29 02:52:00,70.3,66.0,29.99,SSE,152,0.0,5.0,86,0.00,,,0.00,0.0,meteohub,2013-04-29 06:52:00,
2013-04-29 02:57:00,70.2,65.8,29.98,SE,144,0.0,5.0,86,0.00,,,0.00,0.0,meteohub,2013-04-29 06:57:00,
2013-04-29 03:02:00,70.2,66.0,29.98,SE,144,0.0,4.0,87,0.00,,,0.00,0.0,meteohub,2013-04-29 07:02:00,
2013-04-29 03:07:00,70.0,65.7,29.98,South,180,1.0,3.0,86,0.00,,,0.00,0.0,meteohub,2013-04-29 07:07:00,
2013-04-29 03:11:00,69.8,65.8,29.98,South,175,0.0,4.0,87,0.00,,,0.00,0.0,meteohub,2013-04-29 07:11:00,
2013-04-29 03:17:00,69.6,65.7,29.98,SSE,148,0.0,4.0,87,0.00,,,0.00,0.0,meteohub,2013-04-29 07:17:00,
2013-04-29 03:22:00,69.6,65.7,29.97,SSE,148,0.0,4.0,87,0.00,,,0.00,0.0,meteohub,2013-04-29 07:22:00,
2013-04-29 03:27:00,69.4,65.5,29.98,SSE,148,0.0,3.0,87,0.00,,,0.00,0.0,meteohub,2013-04-29 07:27:00,
2013-04-29 03:32:00,69.3,65.3,29.98,SSE,148,0.0,3.0,87,0.00,,,0.00,0.0,meteohub,2013-04-29 07:32:00,
2013-04-29 03:37:00,69.3,65.3,29.98,South,174,0.0,3.0,87,0.00,,,0.00,0.0,meteohub,2013-04-29 07:37:00,
2013-04-29 03:42:00,69.3,64.9,29.98,SSE,165,0.0,3.0,86,0.00,,,0.00,0.0,meteohub,2013-04-29 07:42:00,
2013-04-29 03:47:00,69.3,64.9,29.98,SSE,165,0.0,3.0,86,0.00,,,0.00,0.0,meteohub,2013-04-29 07:47:00,
2013-04-29 03:52:00,69.3,64.9,29.98,SSE,165,1.0,3.0,86,0.00,,,0.00,0.0,meteohub,2013-04-29 07:52:00,
2013-04-29 03:57:00,69.1,64.8,29.98,SSE,165,0.0,3.0,86,0.00,,,0.00,0.0,meteohub,2013-04-29 07:57:00,
2013-04-29 04:02:00,69.1,65.1,29.97,SSE,149,0.0,2.0,87,0.00,,,0.00,0.0,meteohub,2013-04-29 08:02:00,
2013-04-29 04:07:00,68.9,64.9,29.97,SSE,150,0.0,2.0,87,0.00,,,0.00,0.0,meteohub,2013-04-29 08:07:00,
2013-04-29 04:12:00,68.7,64.8,29.97,SSE,150,0.0,2.0,87,0.00,,,0.00,0.0,meteohub,2013-04-29 08:12:00,
2013-04-29 04:17:00,68.7,64.8,29.97,SSE,150,0.0,2.0,87,0.00,,,0.00,0.0,meteohub,2013-04-29 08:17:00,
2013-04-29 04:22:00,68.5,64.6,29.97,South,175,0.0,2.0,87,0.00,,,0.00,0.0,meteohub,2013-04-29 08:22:00,
2013-04-29 04:27:00,68.5,64.6,29.97,South,176,0.0,2.0,87,0.00,,,0.00,0.0,meteohub,2013-04-29 08:27:00,
2013-04-29 04:32:00,68.5,64.6,29.97,South,176,0.0,2.0,87,0.00,,,0.00,0.0,meteohub,2013-04-29 08:32:00,
2013-04-29 04:37:00,68.4,64.4,29.97,South,176,0.0,2.0,87,0.00,,,0.00,0.0,meteohub,2013-04-29 08:37:00,
2013-04-29 04:42:00,68.4,64.6,29.97,South,176,0.0,1.0,88,0.00,,,0.00,0.0,meteohub,2013-04-29 08:42:00,
2013-04-29 04:47:00,68.2,64.4,29.97,South,176,0.0,1.0,88,0.00,,,0.00,0.0,meteohub,2013-04-29 08:47:00,
2013-04-29 04:52:00,68.2,64.4,29.97,South,176,0.0,2.0,88,0.00,,,0.00,0.0,meteohub,2013-04-29 08:52:00,
2013-04-29 04:57:00,67.8,64.2,29.97,South,176,0.0,2.0,88,0.00,,,0.00,0.0,meteohub,2013-04-29 08:57:00,
2013-04-29 05:02:00,67.6,64.0,29.97,South,176,0.0,1.0,88,0.00,,,0.00,0.0,meteohub,2013-04-29 09:02:00,
2013-04-29 05:07:00,67.6,64.2,29.97,South,176,0.0,1.0,89,0.00,,,0.00,0.0,meteohub,2013-04-29 09:07:00,
2013-04-29 05:12:00,67.6,64.2,29.97,South,176,0.0,1.0,89,0.00,,,0.00,0.0,meteohub,2013-04-29 09:12:00,
2013-04-29 05:17:00,67.6,64.2,29.97,South,176,0.0,1.0,89,0.00,,,0.00,0.0,meteohub,2013-04-29 09:17:00,
2013-04-29 05:22:00,67.6,64.2,29.97,South,180,0.0,3.0,89,0.00,,,0.00,0.0,meteohub,2013-04-29 09:22:00,
2013-04-29 05:27:00,67.6,64.0,29.96,South,180,0.0,3.0,88,0.00,,,0.00,0.0,meteohub,2013-04-29 09:27:00,
2013-04-29 05:32:00,67.8,64.2,29.96,SSE,158,0.0,2.0,88,0.00,,,0.00,0.0,meteohub,2013-04-29 09:32:00,
2013-04-29 05:37:00,67.8,64.2,29.96,SE,144,0.0,5.0,88,0.00,,,0.00,0.0,meteohub,2013-04-29 09:37:00,
2013-04-29 05:42:00,67.8,64.2,29.96,SSE,153,0.0,5.0,88,0.00,,,0.00,0.0,meteohub,2013-04-29 09:42:00,
2013-04-29 05:47:00,67.8,64.2,29.96,SE,146,0.0,3.0,88,0.00,,,0.00,0.0,meteohub,2013-04-29 09:47:00,
2013-04-29 05:52:00,68.0,64.4,29.96,SSE,156,0.0,4.0,88,0.00,,,0.00,0.0,meteohub,2013-04-29 09:52:00,
2013-04-29 05:57:00,68.0,64.4,29.96,SE,139,5.0,5.0,88,0.00,,,0.00,0.0,meteohub,2013-04-29 09:57:00,
2013-04-29 06:02:00,68.2,64.2,29.96,South,175,0.0,5.0,87,0.00,,,0.00,0.0,meteohub,2013-04-29 10:02:00,
2013-04-29 06:07:00,68.4,64.4,29.96,SSE,149,1.0,7.0,87,0.00,,,0.00,0.0,meteohub,2013-04-29 10:07:00,
2013-04-29 06:12:00,68.5,64.2,29.96,SSW,207,1.0,8.0,86,0.00,,,0.00,0.0,meteohub,2013-04-29 10:12:00,
2013-04-29 06:17:00,68.5,64.2,29.96,SSE,165,0.0,8.0,86,0.00,,,0.00,0.0,meteohub,2013-04-29 10:17:00,
2013-04-29 06:22:00,68.5,64.2,29.96,SW,236,3.0,8.0,86,0.00,,,0.00,0.0,meteohub,2013-04-29 10:22:00,
2013-04-29 06:27:00,68.7,64.4,29.96,SSE,161,1.0,6.0,86,0.00,,,0.00,0.0,meteohub,2013-04-29 10:27:00,
2013-04-29 06:32:00,68.7,64.4,29.96,South,183,0.0,5.0,86,0.00,,,0.00,0.0,meteohub,2013-04-29 10:32:00,
2013-04-29 06:37:00,68.7,64.4,29.97,South,176,0.0,6.0,86,0.00,,,0.00,0.0,meteohub,2013-04-29 10:37:00,
2013-04-29 06:42:00,68.7,64.4,29.97,SSE,163,1.0,6.0,86,0.00,,,0.00,0.0,meteohub,2013-04-29 10:42:00,
2013-04-29 06:47:00,68.7,64.4,29.97,SSE,157,0.0,6.0,86,0.00,,,0.00,0.0,meteohub,2013-04-29 10:47:00,
2013-04-29 06:52:00,68.7,64.4,29.97,SSE,150,1.0,5.0,86,0.00,,,0.00,0.0,meteohub,2013-04-29 10:52:00,
2013-04-29 06:57:00,68.7,64.8,29.97,SSE,150,0.0,5.0,87,0.00,,,0.00,9.0,meteohub,2013-04-29 10:57:00,
2013-04-29 07:02:00,68.7,64.8,29.97,SSW,211,0.0,3.0,87,0.00,,,0.00,12.0,meteohub,2013-04-29 11:02:00,
2013-04-29 07:07:00,68.7,64.8,29.97,South,184,0.0,5.0,87,0.00,,,0.00,16.0,meteohub,2013-04-29 11:07:00,
2013-04-29 07:12:00,68.7,64.8,29.97,SSE,167,0.0,5.0,87,0.00,,,0.00,18.0,meteohub,2013-04-29 11:12:00,
2013-04-29 07:17:00,68.5,64.6,29.97,SSE,167,0.0,5.0,87,0.00,,,0.00,19.0,meteohub,2013-04-29 11:17:00,
2013-04-29 07:22:00,68.5,64.6,29.98,SSE,167,0.0,4.0,87,0.00,,,0.00,25.0,meteohub,2013-04-29 11:22:00,
2013-04-29 07:27:00,68.5,64.6,29.98,South,185,0.0,1.0,87,0.00,,,0.00,33.0,meteohub,2013-04-29 11:27:00,
2013-04-29 07:32:00,68.7,64.8,29.98,SSW,207,0.0,3.0,87,0.00,,,0.00,47.0,meteohub,2013-04-29 11:32:00,
2013-04-29 07:37:00,68.7,64.8,29.98,SSE,156,0.0,3.0,87,0.00,,,0.00,62.0,meteohub,2013-04-29 11:37:00,
2013-04-29 07:42:00,68.9,64.9,29.98,SW,225,0.0,5.0,87,0.00,,,0.00,83.0,meteohub,2013-04-29 11:42:00,
2013-04-29 07:47:00,69.3,65.3,29.99,South,171,0.0,5.0,87,0.00,,,0.00,107.0,meteohub,2013-04-29 11:47:00,
2013-04-29 07:52:00,69.4,65.5,29.99,SSE,148,0.0,5.0,87,0.00,,,0.00,123.0,meteohub,2013-04-29 11:52:00,
2013-04-29 07:57:00,69.6,65.3,29.99,SSE,156,0.0,2.0,86,0.00,,,0.00,120.0,meteohub,2013-04-29 11:57:00,
2013-04-29 08:01:00,70.0,65.7,29.99,SSE,156,0.0,2.0,86,0.00,,,0.00,121.0,meteohub,2013-04-29 12:01:00,
2013-04-29 08:06:00,70.2,65.8,29.98,SSE,160,0.0,2.0,86,0.00,,,0.00,121.0,meteohub,2013-04-29 12:06:00,
2013-04-29 08:12:00,70.2,65.5,29.98,SE,134,0.0,3.0,85,0.00,,,0.00,134.0,meteohub,2013-04-29 12:12:00,
2013-04-29 08:17:00,70.3,66.0,29.98,SE,140,1.0,3.0,86,0.00,,,0.00,151.0,meteohub,2013-04-29 12:17:00,
2013-04-29 08:22:00,70.5,65.8,29.98,SSW,200,0.0,3.0,85,0.00,,,0.00,163.0,meteohub,2013-04-29 12:22:00,
2013-04-29 08:27:00,70.7,66.0,29.99,South,179,0.0,4.0,85,0.00,,,0.00,207.0,meteohub,2013-04-29 12:27:00,
2013-04-29 08:32:00,71.1,66.0,29.99,South,172,0.0,4.0,84,0.00,,,0.00,221.0,meteohub,2013-04-29 12:32:00,
2013-04-29 08:37:00,71.4,66.4,29.99,ESE,114,1.0,4.0,84,0.00,,,0.00,250.0,meteohub,2013-04-29 12:37:00,
2013-04-29 08:42:00,72.0,66.6,29.99,ESE,115,0.0,3.0,83,0.00,,,0.00,246.0,meteohub,2013-04-29 12:42:00,
2013-04-29 08:47:00,72.3,66.9,29.99,SE,127,4.0,4.0,83,0.00,,,0.00,338.0,meteohub,2013-04-29 12:47:00,
2013-04-29 08:52:00,72.7,67.3,29.99,SSE,152,0.0,4.0,83,0.00,,,0.00,309.0,meteohub,2013-04-29 12:52:00,
2013-04-29 08:57:00,72.9,66.7,29.99,SSW,200,3.0,4.0,81,0.00,,,0.00,241.0,meteohub,2013-04-29 12:57:00,
2013-04-29 09:02:00,72.9,67.1,29.99,SE,145,1.0,6.0,82,0.00,,,0.00,255.0,meteohub,2013-04-29 13:02:00,
2013-04-29 09:07:00,73.0,67.3,29.99,SE,129,1.0,6.0,82,0.00,,,0.00,301.0,meteohub,2013-04-29 13:07:00,
2013-04-29 09:12:00,73.2,67.1,29.99,SE,140,0.0,6.0,81,0.00,,,0.00,404.0,meteohub,2013-04-29 13:12:00,
2013-04-29 09:17:00,73.6,66.7,29.99,SE,146,0.0,6.0,79,0.00,,,0.00,265.0,meteohub,2013-04-29 13:17:00,
2013-04-29 09:22:00,73.6,67.5,29.99,South,172,0.0,6.0,81,0.00,,,0.00,230.0,meteohub,2013-04-29 13:22:00,
2013-04-29 09:27:00,73.6,67.5,29.99,SSE,163,0.0,6.0,81,0.00,,,0.00,200.0,meteohub,2013-04-29 13:27:00,
2013-04-29 09:32:00,73.4,66.9,29.99,SE,138,0.0,6.0,80,0.00,,,0.00,174.0,meteohub,2013-04-29 13:32:00,
2013-04-29 09:37:00,73.0,66.9,29.99,South,169,1.0,6.0,81,0.00,,,0.00,158.0,meteohub,2013-04-29 13:37:00,
2013-04-29 09:42:00,72.9,66.7,29.99,SE,142,1.0,6.0,81,0.00,,,0.00,169.0,meteohub,2013-04-29 13:42:00,
2013-04-29 09:47:00,72.7,66.6,29.99,South,183,0.0,9.0,81,0.00,,,0.00,192.0,meteohub,2013-04-29 13:47:00,
2013-04-29 09:52:00,72.7,66.9,29.99,South,183,0.0,9.0,82,0.00,,,0.00,209.0,meteohub,2013-04-29 13:52:00,
2013-04-29 09:57:00,72.9,67.1,29.99,WSW,240,1.0,5.0,82,0.00,,,0.00,232.0,meteohub,2013-04-29 13:57:00,
2013-04-29 10:02:00,73.0,67.3,29.99,South,182,0.0,7.0,82,0.00,,,0.00,316.0,meteohub,2013-04-29 14:02:00,
2013-04-29 10:07:00,73.4,67.3,29.99,SSE,161,0.0,7.0,81,0.00,,,0.00,343.0,meteohub,2013-04-29 14:07:00,
2013-04-29 10:12:00,73.8,67.6,29.99,South,186,1.0,8.0,81,0.00,,,0.00,322.0,meteohub,2013-04-29 14:12:00,
2013-04-29 10:17:00,74.5,67.8,29.99,SSE,160,2.0,8.0,80,0.00,,,0.00,712.0,meteohub,2013-04-29 14:17:00,
2013-04-29 10:22:00,74.8,67.8,29.99,SSW,205,2.0,8.0,79,0.00,,,0.00,378.0,meteohub,2013-04-29 14:22:00,
2013-04-29 10:27:00,74.8,67.5,29.99,SE,146,1.0,7.0,78,0.00,,,0.00,325.0,meteohub,2013-04-29 14:27:00,
2013-04-29 10:32:00,74.8,67.5,29.99,SSW,200,1.0,7.0,78,0.00,,,0.00,323.0,meteohub,2013-04-29 14:32:00,
2013-04-29 10:37:00,74.8,68.2,30.00,SSE,164,2.0,9.0,80,0.00,,,0.00,250.0,meteohub,2013-04-29 14:37:00,
2013-04-29 10:42:00,74.7,67.3,30.00,SSE,157,2.0,9.0,78,0.00,,,0.00,271.0,meteohub,2013-04-29 14:42:00,
2013-04-29 10:47:00,74.7,67.3,30.00,SSW,196,2.0,9.0,78,0.00,,,0.00,264.0,meteohub,2013-04-29 14:47:00,
2013-04-29 10:52:00,74.5,67.5,30.00,SSW,200,0.0,9.0,79,0.00,,,0.00,315.0,meteohub,2013-04-29 14:52:00,
2013-04-29 10:57:00,74.7,67.6,30.00,West,261,0.0,6.0,79,0.00,,,0.00,279.0,meteohub,2013-04-29 14:57:00,
2013-04-29 11:02:00,74.8,67.5,30.00,SSE,157,5.0,7.0,78,0.00,,,0.00,315.0,meteohub,2013-04-29 15:02:00,
2013-04-29 11:07:00,74.8,67.1,30.00,SSE,153,0.0,7.0,77,0.00,,,0.00,327.0,meteohub,2013-04-29 15:07:00,
2013-04-29 11:12:00,75.0,67.3,30.00,South,187,0.0,8.0,77,0.00,,,0.00,318.0,meteohub,2013-04-29 15:12:00,
2013-04-29 11:17:00,75.2,67.8,30.00,South,169,0.0,8.0,78,0.00,,,0.00,241.0,meteohub,2013-04-29 15:17:00,
2013-04-29 11:22:00,75.2,67.8,30.00,SSE,152,0.0,8.0,78,0.00,,,0.00,142.0,meteohub,2013-04-29 15:22:00,
2013-04-29 11:26:00,74.8,67.5,30.00,SSE,152,2.0,6.0,78,0.00,,,0.00,221.0,meteohub,2013-04-29 15:26:00,
2013-04-29 11:31:00,74.8,67.8,30.00,South,180,2.0,5.0,79,0.00,,,0.00,383.0,meteohub,2013-04-29 15:31:00,
2013-04-29 11:37:00,75.0,67.3,30.00,SW,225,1.0,8.0,77,0.00,,,0.00,297.0,meteohub,2013-04-29 15:37:00,
2013-04-29 11:41:00,75.4,68.0,29.99,WSW,254,0.0,8.0,78,0.00,,,0.00,278.0,meteohub,2013-04-29 15:41:00,
2013-04-29 11:46:00,75.6,67.8,29.99,SSW,192,1.0,8.0,77,0.00,,,0.00,221.0,meteohub,2013-04-29 15:46:00,
2013-04-29 11:52:00,75.4,67.6,29.99,South,184,0.0,4.0,77,0.00,,,0.00,192.0,meteohub,2013-04-29 15:52:00,
2013-04-29 11:57:00,75.4,67.6,29.99,South,187,1.0,6.0,77,0.00,,,0.00,338.0,meteohub,2013-04-29 15:57:00,
2013-04-29 12:02:00,75.9,68.9,29.99,SSE,167,2.0,6.0,79,0.00,,,0.00,543.0,meteohub,2013-04-29 16:02:00,
2013-04-29 12:06:00,76.8,68.4,29.99,SE,139,1.0,6.0,75,0.00,,,0.00,603.0,meteohub,2013-04-29 16:06:00,
2013-04-29 12:11:00,77.5,68.5,29.99,ESE,108,1.0,6.0,74,0.00,,,0.00,570.0,meteohub,2013-04-29 16:11:00,
2013-04-29 12:16:00,77.9,69.3,29.99,West,263,1.0,6.0,75,0.00,,,0.00,849.0,meteohub,2013-04-29 16:16:00,
2013-04-29 12:21:00,78.6,69.3,29.99,SSW,198,1.0,6.0,73,0.00,,,0.00,738.0,meteohub,2013-04-29 16:21:00,
2013-04-29 12:26:00,79.2,69.8,29.99,WSW,240,0.0,5.0,73,0.00,,,0.00,1048.0,meteohub,2013-04-29 16:26:00,
2013-04-29 12:31:00,79.2,68.5,29.98,SSE,150,5.0,5.0,70,0.00,,,0.00,842.0,meteohub,2013-04-29 16:31:00,
2013-04-29 12:36:00,78.8,68.5,29.98,WNW,293,2.0,6.0,71,0.00,,,0.00,332.0,meteohub,2013-04-29 16:36:00,
2013-04-29 12:41:00,78.6,67.6,29.98,South,175,0.0,6.0,69,0.00,,,0.00,831.0,meteohub,2013-04-29 16:41:00,
2013-04-29 12:46:00,79.2,68.2,29.97,NE,38,2.0,7.0,69,0.00,,,0.00,837.0,meteohub,2013-04-29 16:46:00,
2013-04-29 12:51:00,79.2,69.3,29.97,ESE,120,1.0,8.0,72,0.00,,,0.00,793.0,meteohub,2013-04-29 16:51:00,
2013-04-29 12:56:00,79.3,68.7,29.97,WNW,292,4.0,8.0,70,0.00,,,0.00,1090.0,meteohub,2013-04-29 16:56:00,
2013-04-29 13:01:00,79.5,68.9,29.97,South,172,0.0,9.0,70,0.00,,,0.00,1007.0,meteohub,2013-04-29 17:01:00,
2013-04-29 13:06:00,80.2,69.6,29.96,WSW,241,1.0,9.0,70,0.00,,,0.00,1062.0,meteohub,2013-04-29 17:06:00,
2013-04-29 13:11:00,81.0,68.9,29.96,South,177,3.0,9.0,67,0.00,,,0.00,1056.0,meteohub,2013-04-29 17:11:00,
2013-04-29 13:17:00,80.8,69.3,29.96,WSW,239,2.0,6.0,68,0.00,,,0.00,1113.0,meteohub,2013-04-29 17:17:00,
2013-04-29 13:22:00,80.8,68.7,29.96,South,176,0.0,8.0,67,0.00,,,0.00,290.0,meteohub,2013-04-29 17:22:00,
2013-04-29 13:27:00,79.9,68.7,29.96,ESE,115,0.0,10.0,69,0.00,,,0.00,729.0,meteohub,2013-04-29 17:27:00,
2013-04-29 13:32:00,80.2,69.1,29.95,West,260,1.0,10.0,69,0.00,,,0.00,343.0,meteohub,2013-04-29 17:32:00,
2013-04-29 13:37:00,80.4,68.5,29.95,SSE,160,0.0,10.0,67,0.00,,,0.00,555.0,meteohub,2013-04-29 17:37:00,
2013-04-29 13:42:00,80.6,69.1,29.95,SSW,206,0.0,7.0,68,0.00,,,0.00,853.0,meteohub,2013-04-29 17:42:00,
2013-04-29 13:47:00,80.4,68.9,29.95,SSE,165,0.0,7.0,68,0.00,,,0.00,274.0,meteohub,2013-04-29 17:47:00,
2013-04-29 13:52:00,80.1,68.9,29.95,WSW,246,0.0,7.0,69,0.00,,,0.00,223.0,meteohub,2013-04-29 17:52:00,
2013-04-29 13:57:00,79.5,68.9,29.94,SW,227,0.0,8.0,70,0.00,,,0.00,183.0,meteohub,2013-04-29 17:57:00,
2013-04-29 14:02:00,79.3,68.7,29.94,SSE,166,0.0,8.0,70,0.00,,,0.00,207.0,meteohub,2013-04-29 18:02:00,
2013-04-29 14:07:00,79.2,69.3,29.94,West,271,0.0,1.0,72,0.00,,,0.00,308.0,meteohub,2013-04-29 18:07:00,
2013-04-29 14:11:00,79.9,68.4,29.94,SE,132,0.0,5.0,68,0.00,,,0.00,802.0,meteohub,2013-04-29 18:11:00,
2013-04-29 14:16:00,80.8,69.3,29.93,SSE,150,3.0,5.0,68,0.00,,,0.00,865.0,meteohub,2013-04-29 18:16:00,
2013-04-29 14:21:00,81.3,69.8,29.93,WSW,255,2.0,4.0,68,0.00,,,0.00,803.0,meteohub,2013-04-29 18:21:00,
2013-04-29 14:26:00,81.3,68.4,29.93,South,173,1.0,4.0,65,0.00,,,0.00,250.0,meteohub,2013-04-29 18:26:00,
2013-04-29 14:31:00,80.4,68.9,29.93,WNW,284,1.0,4.0,68,0.00,,,0.00,190.0,meteohub,2013-04-29 18:31:00,
2013-04-29 14:36:00,78.8,68.5,29.92,WNW,300,0.0,8.0,71,0.00,,,0.00,128.0,meteohub,2013-04-29 18:36:00,
2013-04-29 14:41:00,77.7,68.4,29.93,SSE,166,1.0,8.0,73,0.00,,,0.00,160.0,meteohub,2013-04-29 18:41:00,
2013-04-29 14:46:00,76.8,67.8,29.93,East,80,2.0,8.0,74,0.00,,,0.00,200.0,meteohub,2013-04-29 18:46:00,
2013-04-29 14:52:00,76.6,68.9,29.92,WNW,291,0.0,5.0,77,0.00,,,0.00,181.0,meteohub,2013-04-29 18:52:00,
2013-04-29 14:57:00,76.3,68.5,29.92,North,0,0.0,4.0,77,0.00,,,0.00,176.0,meteohub,2013-04-29 18:57:00,
2013-04-29 15:02:00,75.9,68.5,29.92,North,0,3.0,4.0,78,0.00,,,0.00,156.0,meteohub,2013-04-29 19:02:00,
2013-04-29 15:07:00,75.9,68.9,29.92,ENE,74,0.0,4.0,79,0.00,,,0.00,141.0,meteohub,2013-04-29 19:07:00,
2013-04-29 15:12:00,75.9,68.9,29.92,SSE,155,0.0,3.0,79,0.00,,,0.00,120.0,meteohub,2013-04-29 19:12:00,
2013-04-29 15:17:00,75.9,68.9,29.92,ESE,117,0.0,3.0,79,0.00,,,0.00,132.0,meteohub,2013-04-29 19:17:00,
2013-04-29 15:22:00,75.7,68.7,29.91,SE,128,0.0,3.0,79,0.00,,,0.00,163.0,meteohub,2013-04-29 19:22:00,
2013-04-29 15:27:00,75.6,68.9,29.91,East,83,0.0,3.0,80,0.00,,,0.00,111.0,meteohub,2013-04-29 19:27:00,
2013-04-29 15:32:00,75.6,68.9,29.91,East,83,0.0,3.0,80,0.00,,,0.00,47.0,meteohub,2013-04-29 19:32:00,
2013-04-29 15:37:00,75.0,68.7,29.92,ENE,76,0.0,7.0,81,0.00,,,0.00,25.0,meteohub,2013-04-29 19:37:00,
2013-04-29 15:42:00,73.9,67.1,29.92,South,188,0.0,8.0,79,0.00,,,0.00,9.0,meteohub,2013-04-29 19:42:00,
2013-04-29 15:47:00,72.9,67.1,29.92,SE,136,4.0,8.0,82,0.00,,,0.00,12.0,meteohub,2013-04-29 19:47:00,
2013-04-29 15:52:00,71.4,66.4,29.92,SSE,161,0.0,9.0,84,0.01,,,0.00,18.0,meteohub,2013-04-29 19:52:00,
2013-04-29 15:57:00,70.5,66.4,29.92,SSE,149,0.0,9.0,87,0.01,,,0.01,30.0,meteohub,2013-04-29 19:57:00,
2013-04-29 16:02:00,69.6,66.2,29.91,ESE,106,3.0,8.0,89,0.06,,,0.06,40.0,meteohub,2013-04-29 20:02:00,
2013-04-29 16:07:00,69.1,66.0,29.92,ESE,114,3.0,5.0,90,0.06,,,0.06,33.0,meteohub,2013-04-29 20:07:00,
2013-04-29 16:12:00,68.5,66.2,29.92,ESE,117,0.0,4.0,92,0.07,,,0.07,12.0,meteohub,2013-04-29 20:12:00,
2013-04-29 16:17:00,68.4,66.2,29.93,North,0,6.0,6.0,93,0.11,,,0.07,9.0,meteohub,2013-04-29 20:17:00,
2013-04-29 16:22:00,67.3,64.9,29.94,SSE,148,2.0,10.0,92,0.20,,,0.20,11.0,meteohub,2013-04-29 20:22:00,
2013-04-29 16:27:00,66.4,64.2,29.93,SW,221,0.0,15.0,93,0.58,,,0.58,12.0,meteohub,2013-04-29 20:27:00,
2013-04-29 16:32:00,66.0,64.2,29.92,SW,221,0.0,15.0,94,0.76,,,0.69,25.0,meteohub,2013-04-29 20:32:00,
2013-04-29 16:37:00,66.0,64.6,29.92,WSW,249,0.0,15.0,95,0.77,,,0.77,39.0,meteohub,2013-04-29 20:37:00,
2013-04-29 16:42:00,66.7,65.5,29.93,WNW,292,5.0,5.0,96,0.77,,,0.77,37.0,meteohub,2013-04-29 20:42:00,
2013-04-29 16:46:00,67.1,65.8,29.94,WNW,283,4.0,6.0,96,0.77,,,0.77,51.0,meteohub,2013-04-29 20:46:00,
2013-04-29 16:52:00,67.3,66.0,29.93,NW,319,0.0,6.0,96,0.76,,,0.77,58.0,meteohub,2013-04-29 20:52:00,
2013-04-29 16:57:00,67.3,65.8,29.94,WNW,295,0.0,6.0,95,0.74,,,0.77,30.0,meteohub,2013-04-29 20:57:00,
2013-04-29 17:02:00,67.1,65.7,29.94,North,355,0.0,5.0,95,0.71,,,0.77,25.0,meteohub,2013-04-29 21:02:00,
2013-04-29 17:07:00,66.9,65.5,29.94,North,355,0.0,4.0,95,0.72,,,0.78,16.0,meteohub,2013-04-29 21:07:00,
2013-04-29 17:11:00,66.9,65.5,29.94,NNE,26,0.0,3.0,95,0.72,,,0.79,28.0,meteohub,2013-04-29 21:11:00,
2013-04-29 17:16:00,66.9,65.7,29.94,NNE,15,0.0,2.0,96,0.67,,,0.79,70.0,meteohub,2013-04-29 21:16:00,
2013-04-29 17:21:00,66.7,65.3,29.93,NNW,341,0.0,3.0,95,0.48,,,0.80,70.0,meteohub,2013-04-29 21:21:00,
2013-04-29 17:26:00,66.6,65.1,29.93,NE,38,0.0,3.0,95,0.16,,,0.80,65.0,meteohub,2013-04-29 21:26:00,
2013-04-29 17:31:00,66.6,65.3,29.93,NE,45,0.0,3.0,96,0.04,,,0.80,58.0,meteohub,2013-04-29 21:31:00,
2013-04-29 17:36:00,66.6,65.1,29.93,NE,46,0.0,3.0,95,0.03,,,0.80,44.0,meteohub,2013-04-29 21:36:00,
2013-04-29 17:41:00,66.6,65.1,29.92,NE,47,1.0,3.0,95,0.03,,,0.80,35.0,meteohub,2013-04-29 21:41:00,
2013-04-29 17:47:00,66.6,65.1,29.92,NE,47,0.0,2.0,95,0.03,,,0.80,53.0,meteohub,2013-04-29 21:47:00,
2013-04-29 17:52:00,66.4,64.9,29.92,NNE,22,3.0,3.0,95,0.03,,,0.80,49.0,meteohub,2013-04-29 21:52:00,
2013-04-29 17:57:00,66.4,64.9,29.92,NE,46,0.0,4.0,95,0.03,,,0.80,44.0,meteohub,2013-04-29 21:57:00,
2013-04-29 18:02:00,66.6,65.3,29.93,NE,46,0.0,4.0,96,0.03,,,0.80,40.0,meteohub,2013-04-29 22:02:00,
2013-04-29 18:07:00,66.4,65.1,29.93,NE,45,0.0,4.0,96,0.02,,,0.80,33.0,meteohub,2013-04-29 22:07:00,
2013-04-29 18:12:00,66.6,65.3,29.93,NE,46,0.0,3.0,96,0.01,,,0.80,25.0,meteohub,2013-04-29 22:12:00,
2013-04-29 18:17:00,66.4,65.1,29.94,NE,45,0.0,3.0,96,0.00,,,0.80,19.0,meteohub,2013-04-29 22:17:00,
2013-04-29 18:22:00,66.4,65.1,29.94,NE,46,0.0,3.0,96,0.00,,,0.80,19.0,meteohub,2013-04-29 22:22:00,
2013-04-29 18:27:00,66.4,65.1,29.94,NE,45,0.0,2.0,96,0.00,,,0.80,19.0,meteohub,2013-04-29 22:27:00,
2013-04-29 18:32:00,66.4,65.1,29.94,NNE,32,0.0,1.0,96,0.00,,,0.80,19.0,meteohub,2013-04-29 22:32:00,
2013-04-29 18:37:00,66.4,65.1,29.94,NNE,32,0.0,1.0,96,0.00,,,0.80,21.0,meteohub,2013-04-29 22:37:00,
2013-04-29 18:42:00,66.2,64.9,29.94,NNE,32,0.0,1.0,96,0.01,,,0.81,19.0,meteohub,2013-04-29 22:42:00,
2013-04-29 18:47:00,66.2,64.9,29.94,NNE,32,0.0,1.0,96,0.01,,,0.81,16.0,meteohub,2013-04-29 22:47:00,
2013-04-29 18:52:00,66.4,65.1,29.95,NNE,32,0.0,0.0,96,0.02,,,0.81,16.0,meteohub,2013-04-29 22:52:00,
2013-04-29 18:57:00,66.4,65.1,29.95,NNE,32,0.0,0.0,96,0.02,,,0.82,18.0,meteohub,2013-04-29 22:57:00,
2013-04-29 19:02:00,66.4,65.1,29.95,NNE,32,0.0,0.0,96,0.02,,,0.82,18.0,meteohub,2013-04-29 23:02:00,
2013-04-29 19:07:00,66.4,65.5,29.96,NNE,32,0.0,0.0,97,0.03,,,0.83,19.0,meteohub,2013-04-29 23:07:00,
2013-04-29 19:12:00,66.4,65.5,29.96,NNE,32,0.0,1.0,97,0.04,,,0.84,16.0,meteohub,2013-04-29 23:12:00,
2013-04-29 19:17:00,66.2,65.3,29.96,NE,51,0.0,2.0,97,0.04,,,0.84,12.0,meteohub,2013-04-29 23:17:00,
2013-04-29 19:22:00,66.2,65.3,29.97,ESE,110,1.0,2.0,97,0.04,,,0.84,7.0,meteohub,2013-04-29 23:22:00,
2013-04-29 19:26:00,66.2,65.3,29.97,ESE,111,0.0,3.0,97,0.04,,,0.84,5.0,meteohub,2013-04-29 23:26:00,
2013-04-29 19:32:00,66.0,65.1,29.96,ESE,106,0.0,6.0,97,0.04,,,0.84,5.0,meteohub,2013-04-29 23:32:00,
2013-04-29 19:37:00,66.0,65.1,29.96,ESE,107,0.0,6.0,97,0.04,,,0.84,0.0,meteohub,2013-04-29 23:37:00,
2013-04-29 19:42:00,66.0,65.1,29.97,ESE,106,0.0,6.0,97,0.04,,,0.85,0.0,meteohub,2013-04-29 23:42:00,
2013-04-29 19:47:00,65.8,64.9,29.96,ESE,109,0.0,4.0,97,0.04,,,0.85,0.0,meteohub,2013-04-29 23:47:00,
2013-04-29 19:52:00,65.8,64.9,29.96,SE,127,0.0,3.0,97,0.03,,,0.85,0.0,meteohub,2013-04-29 23:52:00,
2013-04-29 19:57:00,66.0,65.1,29.96,South,179,0.0,3.0,97,0.03,,,0.85,0.0,meteohub,2013-04-29 23:57:00,
2013-04-29 20:02:00,66.0,65.1,29.96,South,179,0.0,1.0,97,0.02,,,0.85,0.0,meteohub,2013-04-30 00:02:00,
2013-04-29 20:07:00,66.0,65.1,29.96,South,180,1.0,1.0,97,0.02,,,0.85,0.0,meteohub,2013-04-30 00:07:00,
2013-04-29 20:12:00,65.8,64.9,29.95,South,180,0.0,1.0,97,0.01,,,0.85,0.0,meteohub,2013-04-30 00:12:00,
2013-04-29 20:17:00,65.8,64.9,29.95,South,179,0.0,1.0,97,0.01,,,0.85,0.0,meteohub,2013-04-30 00:17:00,
2013-04-29 20:22:00,65.8,64.9,29.95,South,180,0.0,1.0,97,0.02,,,0.86,0.0,meteohub,2013-04-30 00:22:00,
2013-04-29 20:27:00,65.8,64.9,29.95,South,180,0.0,1.0,97,0.02,,,0.86,0.0,meteohub,2013-04-30 00:27:00,
2013-04-29 20:32:00,65.7,64.8,29.94,South,179,0.0,1.0,97,0.02,,,0.86,0.0,meteohub,2013-04-30 00:32:00,
2013-04-29 20:37:00,65.7,64.8,29.94,South,179,0.0,1.0,97,0.01,,,0.86,0.0,meteohub,2013-04-30 00:37:00,
2013-04-29 20:42:00,65.7,64.8,29.95,South,180,0.0,1.0,97,0.01,,,0.86,0.0,meteohub,2013-04-30 00:42:00,
2013-04-29 20:46:00,65.7,64.8,29.95,South,180,0.0,0.0,97,0.01,,,0.86,0.0,meteohub,2013-04-30 00:46:00,
2013-04-29 20:51:00,65.7,64.8,29.95,South,180,0.0,0.0,97,0.01,,,0.86,0.0,meteohub,2013-04-30 00:51:00,
2013-04-29 20:56:00,65.7,64.8,29.95,South,179,0.0,0.0,97,0.01,,,0.86,0.0,meteohub,2013-04-30 00:56:00,
2013-04-29 21:01:00,65.7,64.8,29.95,South,179,0.0,0.0,97,0.01,,,0.86,0.0,meteohub,2013-04-30 01:01:00,
2013-04-29 21:06:00,65.7,64.8,29.95,South,180,0.0,0.0,97,0.01,,,0.86,0.0,meteohub,2013-04-30 01:06:00,
2013-04-29 21:12:00,65.7,64.8,29.94,South,180,0.0,0.0,97,0.01,,,0.86,0.0,meteohub,2013-04-30 01:12:00,
2013-04-29 21:17:00,65.5,64.6,29.94,South,180,0.0,1.0,97,0.01,,,0.86,0.0,meteohub,2013-04-30 01:17:00,
2013-04-29 21:22:00,65.3,64.4,29.94,South,180,0.0,1.0,97,0.00,,,0.86,0.0,meteohub,2013-04-30 01:22:00,
2013-04-29 21:27:00,65.1,64.2,29.94,South,180,0.0,2.0,97,0.00,,,0.86,0.0,meteohub,2013-04-30 01:27:00,
2013-04-29 21:32:00,65.1,64.2,29.94,South,179,0.0,2.0,97,0.00,,,0.86,0.0,meteohub,2013-04-30 01:32:00,
2013-04-29 21:37:00,64.9,64.0,29.95,South,180,0.0,2.0,97,0.00,,,0.86,0.0,meteohub,2013-04-30 01:37:00,
2013-04-29 21:41:00,64.9,64.0,29.95,South,180,0.0,0.0,97,0.00,,,0.86,0.0,meteohub,2013-04-30 01:41:00,
2013-04-29 21:46:00,64.8,63.9,29.95,South,180,0.0,0.0,97,0.00,,,0.86,0.0,meteohub,2013-04-30 01:46:00,
2013-04-29 21:52:00,64.8,63.9,29.95,South,179,0.0,0.0,97,0.00,,,0.86,0.0,meteohub,2013-04-30 01:52:00,
2013-04-29 21:57:00,64.6,63.7,29.95,South,180,0.0,0.0,97,0.00,,,0.86,0.0,meteohub,2013-04-30 01:57:00,
2013-04-29 22:02:00,64.4,63.5,29.95,South,180,0.0,0.0,97,0.00,,,0.86,0.0,meteohub,2013-04-30 02:02:00,
2013-04-29 22:07:00,64.2,63.3,29.95,South,179,0.0,1.0,97,0.00,,,0.86,0.0,meteohub,2013-04-30 02:07:00,
2013-04-29 22:12:00,64.2,63.3,29.95,South,179,0.0,1.0,97,0.00,,,0.86,0.0,meteohub,2013-04-30 02:12:00,
2013-04-29 22:17:00,64.2,63.3,29.95,South,180,0.0,1.0,97,0.00,,,0.86,0.0,meteohub,2013-04-30 02:17:00,
2013-04-29 22:22:00,64.0,63.5,29.95,South,180,0.0,0.0,98,0.00,,,0.86,0.0,meteohub,2013-04-30 02:22:00,
2013-04-29 22:27:00,63.9,63.0,29.95,South,180,0.0,0.0,97,0.00,,,0.86,0.0,meteohub,2013-04-30 02:27:00,
2013-04-29 22:32:00,63.9,63.0,29.95,South,180,0.0,0.0,97,0.00,,,0.86,0.0,meteohub,2013-04-30 02:32:00,
2013-04-29 22:37:00,63.9,63.0,29.95,South,180,0.0,0.0,97,0.00,,,0.86,0.0,meteohub,2013-04-30 02:37:00,
2013-04-29 22:42:00,63.7,62.8,29.94,South,179,0.0,0.0,97,0.00,,,0.86,0.0,meteohub,2013-04-30 02:42:00,
2013-04-29 22:47:00,63.5,63.0,29.94,South,179,0.0,0.0,98,0.00,,,0.86,0.0,meteohub,2013-04-30 02:47:00,
2013-04-29 22:52:00,63.3,62.8,29.94,South,179,0.0,0.0,98,0.00,,,0.86,0.0,meteohub,2013-04-30 02:52:00,
2013-04-29 22:57:00,63.3,62.8,29.94,South,180,0.0,0.0,98,0.00,,,0.86,0.0,meteohub,2013-04-30 02:57:00,
2013-04-29 23:02:00,63.1,62.2,29.93,South,179,0.0,0.0,97,0.00,,,0.86,0.0,meteohub,2013-04-30 03:02:00,
2013-04-29 23:07:00,62.8,62.2,29.93,South,179,0.0,1.0,98,0.00,,,0.86,0.0,meteohub,2013-04-30 03:07:00,
2013-04-29 23:12:00,62.8,62.2,29.93,South,180,0.0,1.0,98,0.00,,,0.86,0.0,meteohub,2013-04-30 03:12:00,
2013-04-29 23:17:00,62.8,62.2,29.94,South,180,0.0,1.0,98,0.00,,,0.86,0.0,meteohub,2013-04-30 03:17:00,
2013-04-29 23:22:00,62.8,62.2,29.94,South,179,0.0,1.0,98,0.00,,,0.86,0.0,meteohub,2013-04-30 03:22:00,
2013-04-29 23:27:00,63.0,62.4,29.93,South,179,0.0,0.0,98,0.00,,,0.86,0.0,meteohub,2013-04-30 03:27:00,
2013-04-29 23:32:00,63.1,62.6,29.93,South,180,0.0,0.0,98,0.00,,,0.86,0.0,meteohub,2013-04-30 03:32:00,
2013-04-29 23:37:00,63.1,62.6,29.93,South,180,0.0,0.0,98,0.00,,,0.86,0.0,meteohub,2013-04-30 03:37:00,
2013-04-29 23:42:00,63.1,62.6,29.93,South,179,0.0,0.0,98,0.00,,,0.86,0.0,meteohub,2013-04-30 03:42:00,
2013-04-29 23:47:00,63.1,62.6,29.92,South,180,0.0,1.0,98,0.00,,,0.86,0.0,meteohub,2013-04-30 03:47:00,
2013-04-29 23:52:00,63.0,62.4,29.92,South,180,0.0,1.0,98,0.00,,,0.86,0.0,meteohub,2013-04-30 03:52:00,
2013-04-29 23:57:00,62.6,62.1,29.92,South,180,0.0,1.0,98,0.00,,,0.86,0.0,meteohub,2013-04-30 03:57:00,